Wind_Speed
7 8 8 9 8 7 7 6 6 6 6 6 5 4 4 4 4 4 4 4 3 3 4 4 4 4 3 3 2 3 3 4 4 3 3 3 3 3 2 1 0 2 3 4 5 6 7 8 9
6 8 8 9 8 7 6 6 6 6 6 6 6 5 5 5 5 4 5 5 4 4 5 6 5 5 4 4 3 2 2 2 2 2 2 2 2 2 2 1 1 1 2 3 4 5 6 7 7
8 9 9 9 8 7 5 5 5 5 6 6 7 7 7 6 6 6 6 6 6 6 7 7 7 7 6 6 5 4 3 3 2 2 2 1 1 1 1 1 2 2 2 2 3 4 4 5 6
9 10 9 9 8 6 5 4 5 5 7 7 8 8 7 7 7 7 7 8 8 8 9 9 8 8 9 8 8 7 7 6 5 5 4 4 3 3 2 2 2 2 2 2 3 3 3 4 5
9 9 9 9 8 6 6 6 5 6 7 8 8 9 9 9 9 9 9 10 10 10 10 9 9 10 10 10 11 11 10 9 8 8 7 6 6 5 5 4 3 3 3 3 3 3 3 4 5
8 9 10 9 8 7 8 7 6 7 8 9 10 10 10 11 11 11 11 12 12 11 12 11 10 10 11 12 12 13 12 12 12 11 10 9 9 8 7 7 6 5 4 4 3 3 3 3 4
9 10 11 10 10 9 10 10 9 9 10 10 11 12 13 13 13 14 14 14 14 13 13 13 12 12 13 14 15 15 15 15 14 14 13 13 12 11 10 9 8 7 7 6 5 4 4 4 4
10 11 12 12 13 12 13 12 12 12 13 12 12 12 14 15 16 16 16 16 17 16 16 16 15 15 14 14 15 16 16 17 17 17 17 16 15 14 13 12 11 10 9 9 7 6 6 5 5
11 12 13 14 14 15 15 14 15 15 16 16 16 17 17 18 19 19 19 19 20 20 20 20 19 19 18 18 18 18 18 18 19 19 19 19 18 18 16 15 14 13 12 11 10 9 8 7 6
12 13 15 15 16 17 17 18 18 19 19 20 21 21 22 22 22 23 23 24 24 25 25 25 24 24 24 24 23 22 21 20 21 21 21 21 20 20 20 19 18 16 15 14 13 12 11 9 9
13 14 16 17 17 18 19 20 21 22 23 24 24 25 26 26 26 26 27 28 29 29 29 30 29 28 28 28 27 26 25 24 23 23 23 23 23 23 22 21 21 20 19 17 16 15 14 12 11
15 16 17 17 18 19 21 22 23 25 26 27 28 28 28 29 29 30 31 32 33 33 33 33 33 33 32 32 31 30 30 28 27 26 25 25 24 24 24 24 23 23 22 21 19 18 17 15 14
16 17 18 19 20 22 22 23 24 26 27 28 29 30 31 32 32 33 34 35 36 36 36 36 36 36 36 36 36 35 34 33 32 31 30 27 26 25 25 25 25 25 25 25 23 21 19 19 17
18 18 19 21 22 23 24 24 25 27 28 29 30 31 32 33 34 35 35 36 37 37 36 37 37 37 37 37 37 38 38 37 36 35 34 32 30 29 27 27 26 26 28 28 27 25 23 21 21
19 20 21 22 23 24 25 25 27 28 29 30 31 31 31 32 32 32 33 34 35 35 35 35 35 35 36 37 37 37 38 38 38 37 36 36 35 33 32 30 28 28 28 28 27 26 25 24 23
19 20 22 23 23 24 26 26 27 28 28 29 30 29 29 30 30 30 31 31 32 32 33 34 34 34 35 35 35 36 36 37 38 38 37 37 37 36 35 34 32 31 29 27 27 28 27 26 26
21 22 23 23 23 25 26 26 26 26 27 27 28 27 27 28 28 28 29 29 29 30 30 31 31 32 32 32 33 33 34 34 35 36 37 38 38 37 37 36 36 34 32 29 27 27 28 27 26
21 22 22 23 24 25 25 25 25 25 25 25 25 25 25 25 26 26 26 26 26 27 26 26 27 27 28 29 29 30 31 32 33 34 35 37 38 38 38 37 38 37 35 32 30 29 28 27 26
20 21 23 23 24 24 23 23 23 22 22 22 22 23 23 24 24 24 24 23 23 23 22 22 22 23 23 24 25 26 27 29 30 32 33 36 37 38 38 38 39 39 38 36 34 31 30 29 28
19 21 22 22 22 22 21 20 19 19 20 20 21 21 21 22 22 22 21 21 20 19 19 18 18 19 20 21 22 23 24 25 27 28 30 33 35 37 38 40 40 40 40 39 37 35 33 32 30
18 20 20 20 20 19 18 17 17 17 18 18 19 19 19 20 20 20 20 19 19 18 17 17 17 17 18 18 19 19 20 21 22 24 25 28 30 33 36 39 40 41 41 41 39 37 36 34 32
17 18 18 17 17 16 16 15 15 16 16 17 17 18 18 19 20 20 20 19 18 18 17 17 16 16 16 16 17 17 18 19 20 21 22 24 26 29 32 35 38 40 41 42 42 40 38 37 35
14 15 15 14 14 13 13 14 14 14 15 16 17 18 18 19 19 20 20 19 19 18 17 17 17 16 16 15 15 15 16 17 18 19 20 22 24 26 28 31 35 38 40 42 42 42 41 39 38
12 13 12 12 12 12 13 13 13 14 15 16 17 18 18 19 20 20 20 20 20 19 18 17 17 17 16 15 15 14 14 14 15 16 17 19 21 23 25 28 31 34 38 40 41 42 43 42 41
10 11 10 10 11 11 12 13 13 14 16 17 18 18 19 20 20 21 20 21 21 20 18 18 18 18 16 15 15 14 13 13 14 14 15 17 19 20 23 25 28 31 34 38 40 42 43 43 42
8 9 9 9 10 11 12 12 13 14 16 17 18 18 19 20 20 20 20 21 21 20 20 19 19 19 18 16 16 14 13 13 13 13 14 15 16 17 19 21 24 28 31 34 37 39 42 43 43
6 7 8 9 9 10 12 12 13 15 16 16 17 18 20 21 21 21 21 21 22 21 20 20 19 19 18 18 18 16 15 14 13 12 12 12 13 14 16 18 21 24 28 31 35 37 38 40 42
6 7 8 9 10 11 12 13 14 15 15 16 17 19 20 21 21 21 21 22 22 21 21 20 20 20 19 19 19 18 17 15 14 13 12 11 11 12 14 15 18 21 24 28 31 34 36 37 39
5 6 7 8 10 11 12 13 14 15 15 16 17 19 20 21 21 21 22 22 23 23 22 21 21 21 21 21 20 20 18 17 16 15 13 12 11 12 12 13 15 17 20 24 27 29 32 34 36
5 6 7 8 9 11 12 13 14 14 15 16 17 18 19 20 21 21 21 22 22 23 23 22 23 23 22 22 22 21 19 18 17 16 15 14 12 11 10 10 11 13 16 18 20 23 27 29 31
Wind_Direction
37 37 39 36 29 30 28 25 31 40 42 36 26 17 7 0 346 328 314 301 299 303 309 307 309 315 326 346 14 39 52 62 66 70 70 71 75 74 61 51 314 259 264 265 266 266 266 269 270
23 27 30 33 26 24 21 20 30 36 36 27 19 13 8 358 346 332 317 300 289 288 289 288 289 291 297 302 311 326 349 9 23 34 40 42 50 53 42 27 5 313 283 277 275 271 270 272 274
1 5 20 22 14 18 17 16 25 28 26 19 9 5 2 355 343 326 309 297 287 281 276 274 275 278 280 281 283 283 285 288 294 301 306 316 325 342 359 0 347 332 312 294 287 280 274 274 276
351 355 7 6 6 8 356 2 9 11 13 9 359 352 347 341 331 317 303 294 288 283 277 270 268 270 273 275 274 274 272 270 270 271 271 272 276 282 288 300 311 313 314 308 298 289 280 276 277
342 346 353 356 350 348 338 336 346 350 355 350 342 336 333 331 321 308 297 291 284 277 270 265 264 265 268 271 273 271 267 265 265 265 264 264 264 266 269 271 276 282 290 296 295 291 282 274 271
327 332 333 337 335 328 322 324 333 336 337 333 328 325 324 323 318 310 302 297 288 281 274 270 268 268 267 266 267 269 269 265 262 260 260 260 260 261 262 261 263 268 271 275 278 283 286 279 273
318 319 321 320 320 318 321 322 319 320 320 318 316 314 313 313 309 306 302 296 291 283 283 279 276 271 270 269 269 266 265 264 261 259 259 257 257 258 259 258 258 260 263 265 266 266 269 275 274
310 310 312 314 316 312 311 312 313 309 308 307 305 300 300 300 298 296 295 295 293 290 289 289 285 280 276 276 275 270 265 262 262 260 257 254 253 254 256 256 256 257 258 260 260 260 260 262 263
303 305 308 311 312 309 307 307 306 304 302 300 298 293 292 290 288 287 285 285 283 284 287 286 285 284 281 279 276 276 271 264 263 263 259 254 252 251 252 253 254 255 256 256 257 257 256 256 257
296 299 302 304 305 306 305 305 305 303 301 299 296 293 291 287 285 282 280 278 277 278 279 279 278 279 278 278 276 275 270 268 267 265 261 256 256 254 251 252 253 253 254 254 254 255 254 253 252
293 295 299 300 301 302 303 303 302 301 299 298 296 293 289 287 284 281 278 274 272 271 270 271 271 271 271 272 272 270 267 267 268 266 263 258 256 254 253 253 254 253 252 252 252 253 251 249 250
293 296 299 298 298 299 300 300 300 300 299 298 296 293 290 287 284 282 280 277 275 273 271 268 267 266 266 266 267 267 267 266 267 266 264 262 261 254 254 255 253 252 251 251 251 250 250 247 247
292 297 297 296 297 298 299 299 301 301 301 300 297 294 291 289 287 286 283 281 279 277 274 272 270 268 266 264 263 263 263 262 263 263 262 260 260 258 255 253 254 250 249 250 250 247 247 246 245
291 293 296 297 299 300 301 302 302 302 302 300 298 295 294 292 289 287 286 284 282 280 277 274 272 270 267 265 264 262 261 262 260 259 259 257 257 258 258 256 256 253 251 250 250 247 246 246 244
291 293 296 298 300 301 302 303 304 305 304 302 301 300 299 296 294 292 290 288 286 283 281 278 276 274 270 268 266 263 261 259 259 258 257 256 254 254 255 255 255 254 252 250 249 247 245 244 243
291 295 297 300 302 304 306 307 309 309 307 306 305 304 303 302 300 297 295 293 291 288 285 282 280 277 274 271 268 265 262 259 257 256 255 254 253 251 251 251 252 252 252 254 251 246 246 244 242
293 297 300 303 307 309 311 313 313 312 311 310 309 310 310 309 307 304 302 299 296 292 289 286 283 281 277 274 271 268 264 260 257 254 253 252 251 250 249 249 248 249 249 250 249 248 246 244 241
297 302 305 309 313 313 315 316 317 316 316 315 316 317 318 317 315 312 310 306 303 298 294 290 287 285 282 277 274 271 266 262 257 255 252 251 250 248 248 247 245 245 245 246 245 245 245 243 241
300 305 309 313 316 317 319 320 321 321 321 322 322 323 323 322 321 319 317 315 312 308 301 295 291 289 286 282 278 275 270 265 260 256 253 251 249 247 246 245 244 242 241 242 241 240 242 242 241
303 308 312 316 318 321 323 324 326 324 325 326 326 327 327 328 328 327 326 324 323 320 315 309 302 297 293 289 284 279 274 269 265 260 256 252 249 247 245 244 243 242 240 239 237 237 238 239 239
307 313 317 320 322 324 327 331 331 330 330 330 331 332 334 338 339 338 337 335 333 330 327 322 315 308 303 297 292 286 279 273 267 263 259 254 250 247 246 244 242 241 238 237 235 234 235 235 237
313 319 322 324 326 331 335 339 337 337 337 338 341 343 345 347 347 347 348 347 343 339 334 330 326 320 314 308 300 293 286 279 273 268 262 256 252 250 248 245 242 240 239 236 235 233 233 233 235
322 327 329 332 337 342 347 350 352 349 349 350 351 352 353 353 354 354 353 352 351 347 344 341 337 332 327 322 314 305 295 284 279 273 267 261 255 252 251 248 243 240 238 236 235 233 232 232 232
332 336 339 344 350 357 360 1 1 360 0 1 1 360 359 359 359 360 359 358 356 354 352 350 349 345 339 332 324 317 310 298 289 281 273 267 261 256 253 249 245 241 239 236 234 233 232 232 231
341 346 351 360 6 7 5 7 7 6 8 8 8 7 6 6 6 5 5 5 5 4 2 360 357 355 351 345 338 329 322 313 303 292 282 275 269 262 256 251 246 242 239 236 234 233 233 232 232
355 1 7 11 12 12 13 13 11 12 12 12 12 11 10 10 10 11 11 11 11 10 9 7 6 5 2 358 353 346 337 328 317 305 292 284 276 268 261 254 248 243 239 236 235 235 235 234 233
14 17 17 20 24 26 25 23 20 18 17 17 16 15 14 15 16 16 17 16 15 14 13 12 12 11 10 7 4 0 353 346 338 325 311 298 286 275 266 260 251 246 241 238 236 236 236 235 234
32 30 31 33 35 33 30 26 22 20 20 20 18 17 17 19 19 19 20 20 19 18 18 17 16 15 14 11 9 6 3 359 353 344 331 317 302 288 277 268 258 251 245 240 238 236 235 236 235
45 42 40 39 35 32 29 27 23 23 23 21 20 19 18 19 20 21 22 23 22 22 22 22 21 19 17 15 13 12 10 6 3 358 351 340 323 305 292 281 266 257 251 245 241 238 236 235 236
56 46 40 37 35 31 31 31 28 26 24 21 19 18 19 20 20 21 22 22 23 23 24 25 24 23 21 18 16 15 13 11 9 7 2 356 347 334 315 301 282 268 258 251 246 241 238 236 235
Height
5917 5916 5915 5916 5916 5915 5914 5913 5912 5911 5910 5910 5909 5909 5909 5909 5909 5910 5908 5906 5906 5905 5905 5905 5904 5904 5903 5902 5902 5902 5901 5901 5901 5901 5901 5902 5902 5902 5902 5902 5902 5903 5903 5903 5904 5904 5905 5905 5905
5917 5916 5917 5916 5916 5915 5915 5913 5912 5911 5910 5909 5909 5909 5908 5907 5907 5906 5905 5905 5904 5904 5904 5904 5903 5903 5902 5902 5902 5901 5901 5901 5901 5901 5901 5901 5901 5902 5902 5902 5902 5902 5902 5902 5903 5903 5903 5904 5904
5918 5917 5918 5917 5916 5915 5915 5913 5912 5911 5910 5910 5909 5908 5908 5907 5906 5905 5904 5903 5903 5902 5902 5902 5901 5901 5901 5901 5901 5900 5900 5900 5900 5900 5901 5901 5901 5901 5901 5902 5902 5901 5901 5901 5902 5902 5902 5903 5903
5919 5918 5918 5917 5916 5915 5914 5913 5912 5911 5910 5909 5909 5908 5907 5906 5905 5904 5903 5902 5901 5900 5900 5899 5899 5899 5899 5899 5899 5899 5899 5899 5899 5899 5899 5900 5900 5900 5901 5901 5901 5901 5901 5901 5901 5901 5901 5902 5902
5919 5918 5918 5916 5916 5915 5914 5912 5912 5911 5910 5909 5908 5907 5906 5905 5904 5902 5901 5900 5899 5897 5897 5897 5897 5897 5897 5897 5897 5897 5897 5897 5897 5898 5898 5898 5899 5899 5900 5900 5900 5900 5900 5900 5900 5900 5901 5901 5901
5919 5918 5917 5916 5915 5915 5913 5912 5911 5910 5909 5908 5907 5906 5905 5904 5903 5901 5900 5898 5897 5896 5894 5893 5894 5894 5894 5894 5894 5895 5895 5895 5895 5895 5896 5896 5897 5897 5898 5898 5899 5899 5899 5899 5899 5899 5900 5900 5900
5919 5917 5916 5915 5915 5914 5913 5911 5910 5909 5909 5908 5907 5905 5903 5902 5901 5900 5898 5896 5895 5892 5892 5891 5891 5891 5890 5891 5891 5891 5892 5892 5892 5893 5893 5894 5894 5895 5896 5896 5897 5897 5898 5898 5898 5898 5899 5899 5899
5917 5917 5915 5914 5913 5912 5911 5910 5909 5908 5907 5906 5905 5904 5902 5901 5899 5898 5896 5894 5892 5891 5890 5889 5889 5888 5887 5887 5887 5887 5887 5888 5888 5889 5890 5890 5891 5892 5893 5894 5894 5895 5896 5896 5897 5897 5897 5897 5898
5916 5916 5914 5913 5912 5911 5909 5908 5907 5906 5905 5903 5902 5901 5899 5898 5896 5895 5893 5892 5890 5888 5887 5886 5885 5884 5884 5884 5884 5884 5883 5884 5884 5885 5885 5887 5887 5888 5889 5891 5892 5893 5893 5894 5895 5895 5895 5896 5896
5914 5914 5912 5911 5910 5909 5907 5905 5904 5903 5901 5900 5898 5896 5895 5893 5892 5890 5889 5887 5886 5884 5883 5882 5881 5881 5880 5879 5879 5879 5879 5879 5880 5880 5881 5882 5883 5884 5886 5887 5888 5889 5890 5891 5892 5893 5893 5894 5894
5912 5911 5910 5909 5908 5906 5904 5903 5900 5899 5897 5895 5893 5891 5889 5888 5886 5884 5882 5881 5879 5878 5877 5876 5875 5875 5874 5874 5873 5873 5873 5874 5874 5875 5875 5876 5878 5879 5881 5882 5884 5885 5887 5887 5889 5889 5890 5891 5892
5910 5909 5908 5907 5905 5904 5902 5899 5897 5894 5892 5889 5887 5885 5883 5881 5879 5877 5875 5874 5872 5871 5870 5869 5868 5868 5868 5867 5868 5867 5868 5868 5868 5869 5870 5871 5872 5874 5875 5877 5879 5880 5882 5883 5885 5886 5887 5888 5889
5908 5907 5905 5904 5902 5900 5898 5895 5893 5890 5887 5884 5881 5878 5876 5874 5872 5869 5867 5865 5863 5862 5861 5860 5860 5860 5860 5860 5860 5860 5861 5861 5862 5862 5863 5865 5866 5868 5869 5871 5873 5874 5876 5878 5880 5881 5883 5884 5885
5906 5904 5902 5901 5899 5896 5894 5891 5888 5885 5881 5878 5875 5872 5869 5866 5864 5861 5859 5857 5855 5853 5852 5851 5850 5850 5850 5850 5851 5852 5852 5853 5854 5855 5856 5858 5859 5861 5863 5864 5866 5868 5870 5872 5874 5875 5877 5879 5881
5902 5901 5899 5897 5895 5892 5890 5887 5883 5879 5876 5872 5869 5865 5862 5859 5856 5853 5851 5848 5846 5844 5843 5841 5841 5840 5840 5840 5841 5842 5842 5843 5845 5846 5847 5849 5851 5853 5855 5857 5859 5861 5863 5865 5867 5869 5871 5874 5876
5899 5898 5896 5894 5891 5888 5887 5883 5878 5874 5870 5866 5863 5859 5856 5852 5849 5846 5843 5840 5838 5835 5833 5832 5831 5830 5830 5830 5831 5831 5832 5833 5835 5836 5838 5840 5842 5844 5847 5849 5852 5854 5856 5858 5860 5863 5865 5868 5870
5896 5894 5892 5890 5887 5883 5881 5877 5874 5869 5865 5861 5858 5854 5850 5847 5843 5839 5836 5833 5830 5827 5825 5824 5822 5821 5820 5820 5821 5821 5822 5823 5825 5826 5828 5830 5832 5835 5838 5841 5843 5846 5849 5851 5853 5856 5858 5861 5863
5893 5890 5888 5885 5882 5879 5876 5873 5869 5865 5861 5857 5853 5849 5846 5842 5838 5834 5830 5826 5823 5820 5818 5816 5814 5813 5812 5812 5812 5812 5813 5814 5815 5816 5818 5820 5822 5825 5828 5831 5834 5837 5840 5844 5846 5849 5851 5854 5856
5889 5887 5884 5882 5879 5876 5872 5869 5865 5861 5857 5853 5850 5846 5842 5838 5834 5829 5825 5821 5818 5814 5812 5809 5808 5806 5805 5804 5804 5803 5804 5804 5806 5807 5809 5810 5812 5815 5818 5821 5824 5828 5831 5835 5838 5841 5844 5846 5849
5886 5884 5881 5878 5875 5872 5868 5865 5862 5858 5855 5851 5847 5843 5839 5835 5830 5826 5821 5817 5814 5810 5807 5805 5803 5801 5799 5798 5797 5796 5796 5796 5797 5798 5799 5801 5803 5805 5808 5811 5814 5818 5822 5825 5829 5832 5836 5839 5842
5883 5881 5878 5875 5872 5869 5866 5863 5860 5856 5853 5849 5845 5841 5837 5833 5828 5824 5819 5815 5811 5807 5804 5801 5799 5796 5794 5792 5791 5790 5789 5789 5789 5790 5790 5792 5793 5795 5798 5801 5804 5807 5811 5815 5819 5823 5827 5831 5834
5881 5878 5875 5872 5869 5866 5864 5862 5858 5855 5851 5848 5844 5840 5836 5831 5827 5822 5818 5813 5809 5805 5801 5798 5795 5793 5790 5788 5786 5785 5784 5783 5782 5783 5783 5784 5785 5787 5789 5791 5794 5797 5801 5805 5809 5814 5818 5822 5826
5878 5876 5873 5870 5868 5865 5862 5860 5858 5854 5850 5847 5843 5839 5834 5830 5826 5821 5817 5812 5808 5803 5800 5796 5793 5790 5787 5785 5782 5781 5779 5778 5777 5777 5777 5777 5778 5780 5781 5782 5785 5787 5791 5795 5799 5804 5808 5813 5817
5877 5875 5872 5869 5867 5864 5862 5859 5857 5853 5850 5846 5842 5838 5834 5830 5825 5820 5816 5811 5807 5802 5798 5795 5792 5788 5785 5782 5779 5777 5775 5773 5772 5771 5771 5771 5771 5772 5773 5774 5776 5779 5782 5786 5790 5795 5799 5803 5808
5876 5874 5872 5869 5866 5864 5861 5859 5857 5853 5850 5846 5842 5838 5834 5830 5825 5820 5816 5811 5807 5802 5798 5795 5791 5787 5783 5780 5777 5775 5772 5770 5768 5767 5766 5765 5765 5766 5766 5767 5769 5770 5773 5777 5781 5785 5789 5794 5799
5875 5874 5872 5870 5867 5864 5862 5859 5857 5853 5850 5846 5843 5839 5835 5831 5826 5821 5817 5812 5808 5803 5799 5795 5791 5787 5783 5780 5776 5773 5770 5768 5765 5763 5762 5761 5760 5760 5760 5761 5762 5763 5766 5769 5772 5776 5780 5785 5789
5875 5873 5872 5870 5867 5865 5863 5860 5857 5854 5851 5848 5844 5841 5836 5832 5827 5823 5818 5814 5809 5805 5800 5796 5792 5788 5784 5780 5777 5773 5769 5766 5763 5761 5759 5757 5756 5756 5755 5755 5756 5757 5758 5761 5764 5767 5771 5775 5780
5876 5874 5873 5871 5868 5866 5864 5861 5859 5855 5852 5849 5846 5842 5838 5834 5829 5825 5820 5816 5811 5807 5802 5798 5794 5790 5786 5781 5777 5773 5769 5765 5762 5759 5756 5754 5753 5752 5751 5750 5750 5751 5752 5753 5756 5759 5763 5767 5771
5876 5875 5873 5871 5869 5867 5865 5865 5860 5857 5854 5851 5847 5844 5840 5836 5831 5827 5822 5818 5814 5809 5804 5800 5796 5791 5787 5783 5779 5774 5770 5766 5762 5759 5756 5753 5750 5748 5747 5746 5745 5745 5746 5747 5749 5752 5755 5758 5762
5877 5875 5874 5873 5871 5868 5866 5867 5861 5858 5855 5852 5849 5846 5842 5838 5833 5829 5825 5820 5816 5811 5807 5803 5798 5794 5789 5785 5780 5775 5771 5767 5763 5759 5755 5752 5749 5746 5744 5742 5741 5740 5740 5741 5743 5745 5748 5751 5754